This is the latest recevied weather packets stored in our database for station/object JE9BHE-13. If no packets are shown the sender has not sent any weather packets the latest 10 day(s).
| Time | Temp. | Humidity | Pressure | Rain* | Wind** | Luminosity | Snow |
|---|---|---|---|---|---|---|---|
| 1777549686 | 13.33° C | 90% | 1017 hPa | 0 mm | - | - | - |
| 1777549326 | 13.33° C | 90% | 1017.2 hPa | 0 mm | - | - | - |
| 1777548245 | 13.89° C | 87% | 1017.3 hPa | 0 mm | - | - | - |
| 1777546627 | 13.89° C | 86% | 1017.4 hPa | 0 mm | - | - | - |
| 1777545365 | 13.89° C | 85% | 1017.8 hPa | 0 mm | - | - | - |
| 1777545006 | 13.89° C | 84% | 1017.3 hPa | 0 mm | - | - | - |
| 1777544646 | 13.89° C | 85% | 1017.6 hPa | 0 mm | - | - | - |
| 1777544106 | 13.89° C | 85% | 1017.5 hPa | 0 mm | - | - | - |
| 1777543206 | 14.44° C | 84% | 1017.5 hPa | 0 mm | - | - | - |
| 1777542305 | 14.44° C | 83% | 1017.8 hPa | 0 mm | - | - | - |
| 1777541765 | 14.44° C | 83% | 1017.8 hPa | 0 mm | - | - | - |
| 1777541406 | 14.44° C | 83% | 1017.7 hPa | 0 mm | - | - | - |
| 1777539425 | 15° C | 78% | 1018.1 hPa | 0 mm | - | - | - |
| 1777539246 | 15° C | 78% | 1018.2 hPa | 0 mm | - | - | - |
| 1777539066 | 15° C | 78% | 1018.1 hPa | 0 mm | - | - | - |
| 1777536186 | 16.11° C | 75% | 1017.9 hPa | 0 mm | - | - | - |
| 1777535466 | 16.11° C | 75% | 1017.8 hPa | 0 mm | - | - | - |
| 1777534746 | 16.11° C | 75% | 1018.1 hPa | 0 mm | - | - | - |
| 1777533846 | 16.11° C | 74% | 1018.1 hPa | 0 mm | - | - | - |
| 1777533125 | 16.67° C | 74% | 1017.9 hPa | 0 mm | - | - | - |
| 1777531685 | 16.67° C | 73% | 1018.2 hPa | 0 mm | - | - | - |
| 1777530606 | 16.67° C | 74% | 1018.2 hPa | 0 mm | - | - | - |
| 1777530426 | 16.67° C | 73% | 1018.4 hPa | 0 mm | - | - | - |
| 1777529885 | 17.22° C | 73% | 1018.7 hPa | 0 mm | - | - | - |
| 1777529346 | 16.11° C | 74% | 1018.7 hPa | 0 mm | - | - | - |
* Rain latest hour (hover to see other rain measurements)
** Current wind speed in m/s (hover to see current wind gust speed)